Location: Berkeley
(37.8716°N, 122.2727°W)
Time: 07:49:38
(UTC-07:00)

Envisat - Visible Passes

Search period start: 23 May 2017 00:00
Search period end: 02 June 2017 00:00
Orbit: 764 x 766 km, 98.2° (Epoch: 22 May)

Date Brightness Start Highest point End Pass type
(mag) Time Alt. Az. Time Alt. Az. Time Alt. Az.
23 May 3.0 21:10:41 10° SSE 21:15:45 87° ENE 21:20:52 10° NNW visible
24 May 5.1 22:14:21 10° SW 22:18:17 22° W 22:22:14 10° NW visible
25 May 3.7 21:36:28 10° S 21:41:24 52° W 21:46:21 10° NNW visible
26 May 3.0 20:59:40 10° SSE 21:04:42 69° ENE 21:09:45 10° N visible
26 May 5.6 22:42:12 10° WSW 22:44:09 12° W 22:46:07 10° WNW visible
27 May 4.7 22:02:47 10° SSW 22:07:08 28° W 22:11:30 10° NW visible
28 May 3.3 21:25:16 10° S 21:30:18 67° W 21:35:22 10° NNW visible
29 May 3.3 20:48:44 10° SSE 20:53:39 53° ENE 20:58:36 10° N visible
29 May 5.5 22:29:56 10° SW 22:32:58 16° W 22:36:01 10° NW visible
30 May 4.3 21:51:21 10° SSW 21:56:00 36° W 22:00:41 10° NNW visible
31 May 3.1 21:14:09 10° SSE 21:19:13 85° WSW 21:24:20 10° NNW visible
01 Jun 5.2 22:18:05 10° SW 22:21:48 20° W 22:25:31 10° NW visible
